SCP
0 0 0 0 0 0 0 0 0 0 0 0 0 0 0 0 0 0 0 0 0 0 0 0 0 0 0 0 0 0 0 0 0 0 0 0 0 0 0 0 0 0 0 0
0 0 0 0 0 0 0 0 0 0 0 0 0 0 0 0 0 0 0 0 0 0 0 0 0 0 0 0 0 0 0 0 0 0 0 0 0 0 0 0 0 0 0 0
0 0 0 0 0 0 0 0 0 0 0 0 0 0 0 0 0 0 0 0 0 0 0 0 0 0 0 0 0 0 0 0 0 0 0 0 0 0 0 0 0 0 0 0
0 0 0 0 0 0 0 0 0 0 0 0 0 0 0 0 0 0 0 0 0 0 0 0 0 0 0 0 0 0 0 0 0 0 0 0 0 0 0 0 0 0 0 0
0 0 0 0 0 0 0 0 0 0 0 0 0 0 0 -0 0 -0 0 0 0 0 0 0 0 0 0 0 0 0 0 0 0 0 0 0 0 0 0 0 0 0 0 0
0 0 0 0 0 0 0 0 0 0 0 0 0 0 0 0 0 0 0 0 0 0 0 0 0 0 0 0 0 0 0 0 0 0 0 0 0 0 0 0 0 0 0 0
0 0 0 0 0 0 0 0 0 0 0 0 0 0 0 0 0 0 0 0 0 0 0 0 0 0 0 0 0 0 0 0 0 0 0 0 0 0 0 0 0 0 0 0
0 0 0 0 0 0 0 0 0 0 0 0 0 0 0 0 0 0 0 0 0 0 0 0 0 0 0 0 0 0 0 0 0 0 0 0 0 0 0 0 0 0 0 0
0 0 0 0 0 0 0 0 0 0 0 0 0 0 0 0 0 0 0 0 0 0 0 0 0 0 0 0 0 0 0 0 0 0 0 0 0 0 0 0 0 0 0 0
0 0 0 0 0 0 0 0 0 0 0 0 0 0 0 0 0 0 0 0 0 0 0 0 0 0 0 0 0 0 0 0 0 0 0 0 0 0 0 0 0 0 0 0
0 0 0 0 0 0 0 0 0 0 0 0 0 0 0 0 0 0 0 0 0 0 0 0 0 0 0 0 0 0 0 0 0 0 0 0 0 0 0 0 0 0 0 0
0 0 0 0 0 0 0 0 0 0 0 0 0 0 0 0 0 0 0 0 0 0 0 0 0 0 0 0 0 0 0 0 0 0 0 0 0 0 0 0 0 0 0 0
0 0 0 0 0 0 0 0 0 0 0 0 0 0 0 0 0 0 0 0 0 0 0 0 0 0 0 0 0 0 0 0 0 0 0 0 0 0 0 0 0 0 0 0
0 0 0 0 0 0 0 0 0 0 0 0 0 0 0 0 0 0 0 0 0 0 0 0 0 0 0 0 0 0 0 0 0 0 0 0 0 0 0 0 0 0 0 0
0 0 0 0 0 0 0 0 0 0 0 0 0 0 0 0 0 0 0 0 0 0 0 0 0 0 0 0 0 0 0 0 0 0 0 0 0 0 0 0 0 0 0 0
0 0 0 0 0 0 0 0 0 0 0 0 0 0 0 -0 0 0 0 0 0 0 0 0 0 0 0 0 0 0 0 0 0 0 0 0 0 0 0 0 0 0 0 0
0 0 0 0 0 0 0 0 0 0 0 0 0 0 0 0 0 0 0 0 0 0 0 0 0 0 0 0 0 0 0 -0 -0 -0 -0 -0 -0 0 0 0 0 0 0 0
0 0 0 0 0 0 0 0 0 0 0 0 0 0 0 0 0 0 0 0 0 0 0 0 0 0 0 -0 -0 -0 -0 -0 -0 -0 -0 -0 -0 -0 -0 -0 0 0 0 0
0 0 0 0 0 0 0 0 0 0 0 0 0 0 0 0 0 0 0 0 0 0 0 0 0 0 0 -0 -0 -0 -0 -0 -0 -0 -0 -0 -0 -0 -0 -0 -0 -0 -0 0
0 0 0 0 0 0 0 0 0 0 0 0 0 0 0 0 0 0 0 0 0 0 0 0 0 -0 -0 -0 -0 -0 -0 -0 -0 -0 -0 -0 -0 -0 -0 -0 -0 -0 -0 -0
0 0 0 0 0 0 0 0 0 0 0 0 0 0 0 0 0 0 0 0 0 0 0 -0 -0 -0 -0 -0 -0 -0 -0 -0 -0 -0 -0 -0 -0 -0 -0 -0 -0 -0 -0 -0
0 0 0 0 0 0 0 0 0 0 0 0 0 0 0 0 0 0 0 0 -0 -0 -0 -0 -0 -0 -0 -0 -0 -0 -0 0 -0 -0 -0 -0 -0 -0 -0 -0 -0 -0 -0 -0
0 0 0 0 0 0 0 0 0 0 0 0 0 0 0 0 0 0 0 -0 -0 -0 -0 -0 -0 -0 -0 -0 -0 -0 -0 0 0 0 -0 -0 -0 -0 -0 -0 -0 -0 -0 -0
0 0 0 0 0 0 0 0 0 0 0 0 0 0 0 0 0 0 -0 -0 -0 -0 -0 -0 -0 -0 -0 0 0 0 0 0 0 0 0 0 -0 -0 -0 -0 -0 -0 -0 -0
0 0 0 0 0 0 0 0 0 0 0 0 0 0 0 -0 0 -0 -0 -0 0 0 0 0 -0 0 0 0 0 0 0 0 0 0 0 0 -0 -0 -0 -0 -0 -0 -0 -0
0 0 0 0 0 0 0 0 0 0 0 0 0 0 0 0 0 0 0 0 -0 -0 -0 -0 0 0 0 0 0 0 0 0 0 0 0 0 -0 -0 -0 -0 -0 -0 -0 -0
Wind_Speed_500mb
22 10 38 24 18 13 6 8 11 2 2 6 9 19 23 38 52 51 60 56 56 54 46 62 63 55 56 62 67 63 57 62 65 71 77 74 75 76 77 75 72 69 66 66
8 38 18 11 18 17 11 13 17 5 3 3 8 32 32 44 48 57 62 67 65 66 61 60 61 61 60 64 72 74 67 64 65 74 77 78 77 80 79 78 76 75 73 70
31 15 30 21 12 23 24 28 13 9 2 6 8 35 32 44 50 56 63 74 80 80 83 79 73 72 72 76 70 77 75 66 63 66 75 79 78 84 86 85 84 83 81 78
24 36 18 20 26 24 29 18 8 14 5 16 10 19 22 13 31 24 57 69 85 98 101 98 102 87 79 75 67 75 77 75 69 67 75 80 84 86 86 82 82 85 84 85
19 22 32 25 47 30 27 15 19 25 26 3 10 12 21 10 14 26 39 59 74 84 74 73 70 74 84 80 69 67 71 80 85 80 78 78 83 84 84 85 84 86 84 82
8 4 10 18 13 37 14 9 9 10 19 21 39 19 22 16 15 8 15 23 28 20 20 24 19 13 22 27 41 49 58 68 81 88 87 86 83 82 90 88 89 89 88 86
14 18 5 4 22 19 19 15 7 13 14 26 18 20 32 10 21 12 8 16 33 39 37 34 30 21 9 7 13 18 22 29 44 67 79 84 89 88 92 91 91 92 92 91
8 10 21 14 42 25 34 24 8 12 9 5 9 17 16 27 32 33 27 35 40 41 41 43 40 36 31 26 19 11 3 13 29 38 47 60 74 86 96 97 94 99 98 97
12 12 6 18 10 16 19 21 15 6 2 5 10 14 16 20 5 15 49 37 40 39 41 32 33 31 25 23 21 19 18 14 15 17 28 49 60 69 79 88 91 93 96 97
14 5 5 9 15 19 12 16 11 10 9 8 11 14 17 10 16 15 19 37 42 35 36 35 33 37 30 29 27 24 27 30 27 24 26 28 36 53 63 67 78 84 88 89
11 5 4 2 22 23 10 3 13 2 8 11 5 12 12 17 18 26 27 44 39 28 23 34 33 33 30 25 22 20 23 28 32 31 28 27 27 31 44 59 66 72 76 80
13 9 9 9 2 6 5 8 10 8 12 8 2 11 10 15 14 34 34 31 27 20 26 32 29 27 24 25 29 32 29 31 36 38 38 39 33 29 30 37 49 62 70 73
22 9 6 4 1 6 7 12 8 5 3 8 13 5 12 22 13 33 39 26 18 21 24 26 28 32 36 36 37 39 42 45 46 48 47 43 44 45 45 44 42 43 51 63
36 10 15 19 8 13 14 20 23 12 3 1 4 7 23 17 18 17 18 11 27 28 28 26 31 39 41 44 45 46 49 52 55 55 55 56 54 54 52 53 53 54 51 54
20 14 7 1 9 8 15 16 31 23 15 13 6 1 18 13 4 21 15 13 13 20 24 29 32 38 43 48 51 53 56 62 62 60 61 62 62 61 59 58 58 59 60 61
8 10 8 4 7 7 5 16 31 26 22 15 24 20 25 32 15 17 27 32 30 26 27 29 37 43 51 57 58 62 67 70 71 70 67 65 66 67 69 66 62 62 63 64
18 11 8 10 4 9 9 27 24 16 12 20 16 10 16 19 27 23 26 24 23 26 32 39 48 53 60 63 64 68 73 76 78 80 78 76 75 71 71 74 76 73 69 68
15 12 5 6 4 8 9 8 22 17 6 12 15 11 13 28 36 36 32 29 30 40 44 49 56 60 66 70 72 81 85 89 87 87 91 90 87 87 83 80 77 80 80 79
9 10 6 9 8 11 8 5 13 15 8 11 13 8 14 38 39 29 27 28 33 43 47 54 59 66 69 74 82 91 95 97 99 104 103 97 98 99 97 94 91 86 85 84
8 9 8 5 10 16 12 3 16 6 5 11 19 15 16 16 7 5 33 36 41 48 53 61 66 71 75 81 87 92 95 98 101 102 104 109 108 103 106 105 101 95 92 93
10 5 13 7 6 13 10 14 11 12 7 21 23 18 21 9 4 23 34 39 47 53 59 63 74 78 81 83 84 87 92 95 99 105 108 110 110 111 108 103 101 104 103 99
12 13 7 6 3 15 19 6 9 14 18 24 21 17 12 5 13 24 36 48 56 65 72 79 85 87 86 85 86 88 87 90 95 101 108 111 111 110 107 108 106 99 102 103
4 12 11 9 7 10 19 26 19 21 24 13 12 9 10 9 17 29 40 45 50 58 68 73 83 87 88 87 83 88 90 91 94 95 99 105 109 109 107 106 106 103 98 102
4 7 7 10 9 15 19 22 22 20 18 10 9 12 16 21 24 32 38 46 55 61 70 77 80 82 84 81 79 76 80 83 87 93 95 98 102 105 105 105 105 104 102 97
4 12 14 8 13 17 7 17 16 14 9 7 12 16 20 22 26 34 41 46 52 57 59 62 66 69 70 69 68 68 71 77 85 88 90 93 97 100 103 101 100 100 99 81
6 8 11 7 38 9 18 30 20 13 5 8 12 15 19 24 29 34 37 39 41 45 49 53 56 59 62 64 64 65 65 67 76 84 86 87 89 92 94 97 105 93 91 81
Wind_Direction_500mb
179 196 223 204 216 240 122 211 219 360 78 341 283 289 288 292 294 290 284 269 266 266 264 249 250 247 248 254 254 249 244 248 243 238 239 242 245 248 249 250 251 253 253 254
175 227 204 178 179 213 214 220 231 274 289 247 293 285 286 284 274 266 266 269 267 265 263 255 251 255 250 251 253 249 247 249 249 247 246 244 248 252 255 257 258 256 254 256
207 216 183 184 179 203 218 220 200 224 350 234 306 284 275 266 259 262 256 258 259 259 262 258 251 246 250 250 253 249 248 251 256 257 252 247 247 252 253 253 256 257 256 255
219 238 188 203 219 195 230 188 199 245 217 258 144 282 272 257 260 254 258 249 250 256 258 260 257 246 247 254 258 252 252 253 255 258 252 251 250 250 256 259 260 261 260 258
211 171 193 191 217 194 240 151 185 220 224 185 195 258 276 289 272 270 270 266 262 260 266 263 261 259 258 261 254 253 255 255 254 253 258 260 258 260 261 262 263 264 266 265
241 21 200 212 156 186 142 106 165 185 218 235 237 215 271 241 220 291 298 328 266 252 251 233 221 212 231 252 264 265 260 255 256 254 256 257 264 267 263 263 264 265 267 270
205 228 262 325 200 182 169 148 209 211 202 232 189 193 236 273 274 210 232 104 106 104 109 111 107 105 116 193 229 243 252 254 255 259 260 260 262 267 268 269 271 270 270 272
198 238 195 210 230 199 195 193 194 222 195 185 129 216 245 228 249 255 224 140 116 99 96 89 77 72 70 64 61 60 25 269 262 262 262 264 266 265 266 268 269 271 272 275
187 227 130 233 240 197 194 211 151 175 8 113 201 266 295 260 202 111 138 140 115 102 91 73 65 54 51 47 41 27 9 349 326 312 281 264 262 262 264 269 271 272 274 275
179 165 225 277 219 220 223 165 170 209 204 207 238 252 225 190 187 141 140 144 127 117 85 73 57 45 41 49 43 31 21 11 1 340 328 316 289 269 266 266 269 271 274 276
137 160 155 319 202 213 203 244 209 143 189 210 195 248 230 201 165 157 168 144 144 115 89 56 50 48 54 50 43 23 5 352 344 341 333 331 326 309 283 270 268 270 273 274
165 161 193 202 338 15 84 213 230 228 195 242 140 264 346 172 145 142 155 148 130 93 67 46 55 56 44 31 25 23 8 359 356 345 337 333 323 319 309 294 280 273 273 273
159 171 136 209 160 185 196 182 164 186 200 218 215 263 357 39 86 130 129 131 125 65 43 69 65 50 38 28 21 14 8 4 358 353 348 339 330 320 315 308 299 288 281 274
157 169 186 210 183 136 196 202 191 154 191 256 316 169 81 32 4 39 82 56 72 74 74 58 45 35 27 19 12 6 0 357 354 352 347 344 337 331 327 317 306 299 292 287
166 187 186 147 169 145 194 184 184 192 185 146 196 330 294 279 261 293 92 119 94 66 53 43 33 22 14 7 0 356 352 349 347 346 343 338 333 331 327 324 320 307 298 294
180 173 163 116 140 131 165 193 196 200 196 196 209 214 181 249 193 94 89 93 82 66 42 21 16 8 2 358 352 349 346 343 341 338 334 333 329 325 322 322 318 319 313 301
158 128 153 185 220 92 282 222 199 198 201 204 206 192 155 149 124 96 84 74 61 36 18 6 359 355 352 349 346 341 338 335 334 332 330 328 325 324 321 318 316 316 314 313
146 111 132 168 84 199 242 309 213 212 80 41 75 36 16 113 104 82 61 40 19 9 3 353 348 346 345 342 338 333 332 330 328 326 324 324 323 321 318 317 316 311 310 309
179 116 129 167 190 294 305 157 148 166 190 34 118 76 74 132 113 67 32 18 2 355 346 342 339 338 336 334 330 328 327 325 324 322 321 319 318 316 316 314 313 313 309 304
102 138 124 84 143 208 232 207 347 131 233 60 93 43 5 196 212 102 351 346 342 340 337 335 334 334 331 328 325 323 321 321 319 317 315 314 314 313 312 311 310 308 308 306
130 96 157 172 205 283 269 324 327 130 179 108 95 66 38 89 8 309 319 323 328 331 333 335 333 332 330 327 324 320 318 318 317 314 311 310 310 311 311 309 307 307 304 302
156 155 166 116 129 268 8 320 195 119 102 115 102 88 89 17 321 318 328 334 337 336 334 332 332 331 331 329 325 321 319 316 310 307 306 307 308 310 310 308 307 305 303 302
201 181 176 187 192 72 37 98 97 151 139 126 104 68 34 9 338 335 336 339 335 334 334 334 332 330 330 330 328 323 321 317 312 309 306 306 306 307 308 308 307 306 304 302
242 162 111 142 161 132 113 108 110 113 110 96 39 18 7 357 349 343 342 339 338 337 336 335 334 332 332 331 331 330 325 322 317 314 312 311 309 308 307 306 306 305 304 302
186 141 122 88 121 117 149 152 138 124 109 56 17 5 2 0 352 347 345 343 342 340 338 340 341 339 338 337 337 333 330 327 324 322 322 319 317 315 312 310 309 307 303 301
189 156 170 195 163 133 143 165 155 147 83 23 10 10 5 358 355 353 353 351 349 351 350 349 348 346 345 346 346 344 342 339 337 333 333 330 327 324 322 319 312 310 308 308
Wind_Speed_850mb
22 10 38 24 18 13 6 8 11 2 2 6 9 19 23 38 52 51 60 56 56 54 46 62 63 55 56 62 67 63 57 62 65 71 77 74 75 76 77 75 72 69 66 66
8 38 18 11 18 17 11 13 17 5 3 3 8 32 32 44 48 57 62 67 65 66 61 60 61 61 60 64 72 74 67 64 65 74 77 78 77 80 79 78 76 75 73 70
31 15 30 21 12 23 24 28 13 9 2 6 8 35 32 44 50 56 63 74 80 80 83 79 73 72 72 76 70 77 75 66 63 66 75 79 78 84 86 85 84 83 81 78
24 36 18 20 26 24 29 18 8 14 5 16 10 19 22 13 31 24 57 69 85 98 101 98 102 87 79 75 67 75 77 75 69 67 75 80 84 86 86 82 82 85 84 85
19 22 32 25 47 30 27 15 19 25 26 3 10 12 21 10 14 26 39 59 74 84 74 73 70 74 84 80 69 67 71 80 85 80 78 78 83 84 84 85 84 86 84 82
8 4 10 18 13 37 14 9 9 10 19 21 39 19 22 16 15 8 15 23 28 20 20 24 19 13 22 27 41 49 58 68 81 88 87 86 83 82 90 88 89 89 88 86
14 18 5 4 22 19 19 15 7 13 14 26 18 20 32 10 21 12 8 16 33 39 37 34 30 21 9 7 13 18 22 29 44 67 79 84 89 88 92 91 91 92 92 91
8 10 21 14 42 25 34 24 8 12 9 5 9 17 16 27 32 33 27 35 40 41 41 43 40 36 31 26 19 11 3 13 29 38 47 60 74 86 96 97 94 99 98 97
12 12 6 18 10 16 19 21 15 6 2 5 10 14 16 20 5 15 49 37 40 39 41 32 33 31 25 23 21 19 18 14 15 17 28 49 60 69 79 88 91 93 96 97
14 5 5 9 15 19 12 16 11 10 9 8 11 14 17 10 16 15 19 37 42 35 36 35 33 37 30 29 27 24 27 30 27 24 26 28 36 53 63 67 78 84 88 89
11 5 4 2 22 23 10 3 13 2 8 11 5 12 12 17 18 26 27 44 39 28 23 34 33 33 30 25 22 20 23 28 32 31 28 27 27 31 44 59 66 72 76 80
13 9 9 9 2 6 5 8 10 8 12 8 2 11 10 15 14 34 34 31 27 20 26 32 29 27 24 25 29 32 29 31 36 38 38 39 33 29 30 37 49 62 70 73
22 9 6 4 1 6 7 12 8 5 3 8 13 5 12 22 13 33 39 26 18 21 24 26 28 32 36 36 37 39 42 45 46 48 47 43 44 45 45 44 42 43 51 63
36 10 15 19 8 13 14 20 23 12 3 1 4 7 23 17 18 17 18 11 27 28 28 26 31 39 41 44 45 46 49 52 55 55 55 56 54 54 52 53 53 54 51 54
20 14 7 1 9 8 15 16 31 23 15 13 6 1 18 13 4 21 15 13 13 20 24 29 32 38 43 48 51 53 56 62 62 60 61 62 62 61 59 58 58 59 60 61
8 10 8 4 7 7 5 16 31 26 22 15 24 20 25 32 15 17 27 32 30 26 27 29 37 43 51 57 58 62 67 70 71 70 67 65 66 67 69 66 62 62 63 64
18 11 8 10 4 9 9 27 24 16 12 20 16 10 16 19 27 23 26 24 23 26 32 39 48 53 60 63 64 68 73 76 78 80 78 76 75 71 71 74 76 73 69 68
15 12 5 6 4 8 9 8 22 17 6 12 15 11 13 28 36 36 32 29 30 40 44 49 56 60 66 70 72 81 85 89 87 87 91 90 87 87 83 80 77 80 80 79
9 10 6 9 8 11 8 5 13 15 8 11 13 8 14 38 39 29 27 28 33 43 47 54 59 66 69 74 82 91 95 97 99 104 103 97 98 99 97 94 91 86 85 84
8 9 8 5 10 16 12 3 16 6 5 11 19 15 16 16 7 5 33 36 41 48 53 61 66 71 75 81 87 92 95 98 101 102 104 109 108 103 106 105 101 95 92 93
10 5 13 7 6 13 10 14 11 12 7 21 23 18 21 9 4 23 34 39 47 53 59 63 74 78 81 83 84 87 92 95 99 105 108 110 110 111 108 103 101 104 103 99
12 13 7 6 3 15 19 6 9 14 18 24 21 17 12 5 13 24 36 48 56 65 72 79 85 87 86 85 86 88 87 90 95 101 108 111 111 110 107 108 106 99 102 103
4 12 11 9 7 10 19 26 19 21 24 13 12 9 10 9 17 29 40 45 50 58 68 73 83 87 88 87 83 88 90 91 94 95 99 105 109 109 107 106 106 103 98 102
4 7 7 10 9 15 19 22 22 20 18 10 9 12 16 21 24 32 38 46 55 61 70 77 80 82 84 81 79 76 80 83 87 93 95 98 102 105 105 105 105 104 102 97
4 12 14 8 13 17 7 17 16 14 9 7 12 16 20 22 26 34 41 46 52 57 59 62 66 69 70 69 68 68 71 77 85 88 90 93 97 100 103 101 100 100 99 81
6 8 11 7 38 9 18 30 20 13 5 8 12 15 19 24 29 34 37 39 41 45 49 53 56 59 62 64 64 65 65 67 76 84 86 87 89 92 94 97 105 93 91 81
Wind_Direction_850mb
179 196 223 204 216 240 122 211 219 360 78 341 283 289 288 292 294 290 284 269 266 266 264 249 250 247 248 254 254 249 244 248 243 238 239 242 245 248 249 250 251 253 253 254
175 227 204 178 179 213 214 220 231 274 289 247 293 285 286 284 274 266 266 269 267 265 263 255 251 255 250 251 253 249 247 249 249 247 246 244 248 252 255 257 258 256 254 256
207 216 183 184 179 203 218 220 200 224 350 234 306 284 275 266 259 262 256 258 259 259 262 258 251 246 250 250 253 249 248 251 256 257 252 247 247 252 253 253 256 257 256 255
219 238 188 203 219 195 230 188 199 245 217 258 144 282 272 257 260 254 258 249 250 256 258 260 257 246 247 254 258 252 252 253 255 258 252 251 250 250 256 259 260 261 260 258
211 171 193 191 217 194 240 151 185 220 224 185 195 258 276 289 272 270 270 266 262 260 266 263 261 259 258 261 254 253 255 255 254 253 258 260 258 260 261 262 263 264 266 265
241 21 200 212 156 186 142 106 165 185 218 235 237 215 271 241 220 291 298 328 266 252 251 233 221 212 231 252 264 265 260 255 256 254 256 257 264 267 263 263 264 265 267 270
205 228 262 325 200 182 169 148 209 211 202 232 189 193 236 273 274 210 232 104 106 104 109 111 107 105 116 193 229 243 252 254 255 259 260 260 262 267 268 269 271 270 270 272
198 238 195 210 230 199 195 193 194 222 195 185 129 216 245 228 249 255 224 140 116 99 96 89 77 72 70 64 61 60 25 269 262 262 262 264 266 265 266 268 269 271 272 275
187 227 130 233 240 197 194 211 151 175 8 113 201 266 295 260 202 111 138 140 115 102 91 73 65 54 51 47 41 27 9 349 326 312 281 264 262 262 264 269 271 272 274 275
179 165 225 277 219 220 223 165 170 209 204 207 238 252 225 190 187 141 140 144 127 117 85 73 57 45 41 49 43 31 21 11 1 340 328 316 289 269 266 266 269 271 274 276
137 160 155 319 202 213 203 244 209 143 189 210 195 248 230 201 165 157 168 144 144 115 89 56 50 48 54 50 43 23 5 352 344 341 333 331 326 309 283 270 268 270 273 274
165 161 193 202 338 15 84 213 230 228 195 242 140 264 346 172 145 142 155 148 130 93 67 46 55 56 44 31 25 23 8 359 356 345 337 333 323 319 309 294 280 273 273 273
159 171 136 209 160 185 196 182 164 186 200 218 215 263 357 39 86 130 129 131 125 65 43 69 65 50 38 28 21 14 8 4 358 353 348 339 330 320 315 308 299 288 281 274
157 169 186 210 183 136 196 202 191 154 191 256 316 169 81 32 4 39 82 56 72 74 74 58 45 35 27 19 12 6 0 357 354 352 347 344 337 331 327 317 306 299 292 287
166 187 186 147 169 145 194 184 184 192 185 146 196 330 294 279 261 293 92 119 94 66 53 43 33 22 14 7 0 356 352 349 347 346 343 338 333 331 327 324 320 307 298 294
180 173 163 116 140 131 165 193 196 200 196 196 209 214 181 249 193 94 89 93 82 66 42 21 16 8 2 358 352 349 346 343 341 338 334 333 329 325 322 322 318 319 313 301
158 128 153 185 220 92 282 222 199 198 201 204 206 192 155 149 124 96 84 74 61 36 18 6 359 355 352 349 346 341 338 335 334 332 330 328 325 324 321 318 316 316 314 313
146 111 132 168 84 199 242 309 213 212 80 41 75 36 16 113 104 82 61 40 19 9 3 353 348 346 345 342 338 333 332 330 328 326 324 324 323 321 318 317 316 311 310 309
179 116 129 167 190 294 305 157 148 166 190 34 118 76 74 132 113 67 32 18 2 355 346 342 339 338 336 334 330 328 327 325 324 322 321 319 318 316 316 314 313 313 309 304
102 138 124 84 143 208 232 207 347 131 233 60 93 43 5 196 212 102 351 346 342 340 337 335 334 334 331 328 325 323 321 321 319 317 315 314 314 313 312 311 310 308 308 306
130 96 157 172 205 283 269 324 327 130 179 108 95 66 38 89 8 309 319 323 328 331 333 335 333 332 330 327 324 320 318 318 317 314 311 310 310 311 311 309 307 307 304 302
156 155 166 116 129 268 8 320 195 119 102 115 102 88 89 17 321 318 328 334 337 336 334 332 332 331 331 329 325 321 319 316 310 307 306 307 308 310 310 308 307 305 303 302
201 181 176 187 192 72 37 98 97 151 139 126 104 68 34 9 338 335 336 339 335 334 334 334 332 330 330 330 328 323 321 317 312 309 306 306 306 307 308 308 307 306 304 302
242 162 111 142 161 132 113 108 110 113 110 96 39 18 7 357 349 343 342 339 338 337 336 335 334 332 332 331 331 330 325 322 317 314 312 311 309 308 307 306 306 305 304 302
186 141 122 88 121 117 149 152 138 124 109 56 17 5 2 0 352 347 345 343 342 340 338 340 341 339 338 337 337 333 330 327 324 322 322 319 317 315 312 310 309 307 303 301
189 156 170 195 163 133 143 165 155 147 83 23 10 10 5 358 355 353 353 351 349 351 350 349 348 346 345 346 346 344 342 339 337 333 333 330 327 324 322 319 312 310 308 308